Location: Unspecified
(0.0000°N, 0.0000°E)
Time: 16:16:19
(UTC+00:00)

Tiros 1 - Pass Details

Date: 23 November 2019
Orbit: 630 x 664 km, 48.4° (Epoch: 12 December)

Event Time Altitude Azimuth Distance (km) Brightness Sun altitude
Rises 08:21:40 0° 191° (SSW) 2,960 10.7 36.0°
Reaches altitude 10° 08:24:44 10° 171° (S) 2,040 10.3 36.7°
Maximum altitude 08:27:48 17° 130° (SE) 1,610 10.7 37.4°
Drops below altitude 10° 08:30:50 10° 89° (E) 2,022 10.7 38.1°
Sets 08:33:51 0° 69° (ENE) 2,921 11.0 38.8°
